Find KUIPER-00451

NORAD ID: 68945 Int'l Des: 2026-098AC Owner: KUIP Country: US Constellation: amazon-leo operational
LEOCIRCULAR

Live Position

Loading 3D Globe...

About KUIPER-00451

Description loading...

Upcoming Passes

Passes for default location (London). Set your location on the main map for personalized predictions.

Altitude History

Loading altitude history...

Two-Line Element Set

1 68945U 26098AC 26125.83336806 .00055783 00000-0 16878-2 0 9990
2 68945 51.8788 271.8247 0012585 356.3435 280.9103 15.33580974 1461
Epoch: May 5, 2026 • Age: 4 hours

Current Status

Altitude 478.7 km
Velocity 7.62 km/s
Sub-Earth Point -22.67°S, 119.87°W
Launch Date Apr 30, 2026
Age 6 days
Type internet

Technical Details

Classification Payload
Mass 490.00 kg
Dry Mass 490.00 kg
Total Mass 490.00 kg
Length 1.80 m
Diameter 0.70 m
Span 5.00 m
Shape Box + 2 pan
Manufacturer KUIP
Bus Type Kuiper
Phase Status In Orbit
Owner/State KUIP/US

Most Searched